When you browse on this site, cookies collect data to enhance your experience and personalize the content and advertising you see.
Visit our Privacy Policy to learn more. By continuing to use the site, you agree to this use of cookies and data.
  • Em Portugal
  • Lista de países
  • Para 7 dias
  • Temperatura da água
  • Mapas de satélite
  • Mapa do tempo
  • Widgets de tempo
  • user-avatar
    Iniciar Sessão

    Previsão horária em Golinsk

    Hoje, 18 Novembro, Domingo

    Tempo Temperatura Precipitação Vento Pressão Humidade
    00:00 -3°C° 0 mm 2 m/s 731 mmHg 58%
    01:00 -2°C° 0 mm 1 m/s 731 mmHg 62%
    02:00 -2°C° 0 mm 1 m/s 731 mmHg 61%
    03:00 -4°C° 0 mm 2 m/s 730 mmHg 60%
    04:00 -4°C° 0 mm 2 m/s 730 mmHg 59%
    05:00 -2°C° 0 mm 1 m/s 730 mmHg 59%
    06:00 -2°C° 0 mm 1 m/s 729 mmHg 58%
    07:00 -2°C° 0 mm 1 m/s 729 mmHg 58%
    08:00 -1°C° 0 mm 1 m/s 729 mmHg 53%
    09:00 -2°C° 0 mm 2 m/s 729 mmHg 48%
    10:00 +1°C° 0 mm 2 m/s 729 mmHg 44%
    11:00 +1°C° 0 mm 2 m/s 728 mmHg 41%
    12:00 +2°C° 0 mm 2 m/s 728 mmHg 38%
    13:00 +3°C° 0 mm 2 m/s 727 mmHg 36%
    14:00 +2°C° 0 mm 2 m/s 726 mmHg 38%
    15:00 +1°C° 0 mm 2 m/s 726 mmHg 41%
    16:00 -1°C° 0 mm 2 m/s 725 mmHg 44%
    17:00 -2°C° 0 mm 2 m/s 725 mmHg 47%
    18:00 -2°C° 0 mm 2 m/s 724 mmHg 50%
    19:00 -3°C° 0 mm 2 m/s 724 mmHg 53%
    20:00 -3°C° 0 mm 2 m/s 724 mmHg 61%
    21:00 -3°C° 0 mm 2 m/s 724 mmHg 68%
    22:00 -2°C° 0 mm 2 m/s 724 mmHg 76%
    23:00 -2°C° 0 mm 2 m/s 723 mmHg 80%

    Amanhã, 19 Novembro, Segunda-feira

    Tempo Temperatura Precipitação Vento Pressão Humidade
    00:00 -2°C° 0 mm 2 m/s 723 mmHg 84%
    01:00 -2°C° 0 mm 2 m/s 723 mmHg 88%
    02:00 -2°C° 0.1 mm 3 m/s 722 mmHg 88%
    03:00 -2°C° 0.1 mm 3 m/s 722 mmHg 89%
    04:00 -3°C° 0.1 mm 4 m/s 722 mmHg 90%
    05:00 -3°C° 0.1 mm 4 m/s 722 mmHg 89%
    06:00 -2°C° 0.1 mm 4 m/s 722 mmHg 89%
    07:00 -2°C° 0.1 mm 4 m/s 722 mmHg 88%
    08:00 -2°C° 0.1 mm 5 m/s 722 mmHg 85%
    09:00 -2°C° 0.1 mm 5 m/s 722 mmHg 82%
    10:00 -1°C° 0.1 mm 5 m/s 722 mmHg 79%
    11:00 -1°C° 0 mm 5 m/s 722 mmHg 76%
    12:00 -1°C° 0 mm 5 m/s 722 mmHg 73%
    13:00 -1°C° 0 mm 5 m/s 722 mmHg 71%
    14:00 -1°C° 0 mm 5 m/s 722 mmHg 73%
    15:00 -2°C° 0 mm 5 m/s 722 mmHg 75%
    16:00 -2°C° 0 mm 5 m/s 722 mmHg 77%
    17:00 -2°C° 0 mm 5 m/s 722 mmHg 78%
    18:00 -4°C° 0 mm 5 m/s 722 mmHg 79%
    19:00 -4°C° 0 mm 5 m/s 722 mmHg 80%
    20:00 -4°C° 0 mm 5 m/s 722 mmHg 82%
    21:00 -5°C° 0 mm 5 m/s 722 mmHg 83%
    22:00 -5°C° 0 mm 5 m/s 722 mmHg 84%
    23:00 -4°C° 0 mm 4 m/s 722 mmHg 85%

    Depois de amanhã, 20 Novembro, Terça-feira

    Tempo Temperatura Precipitação Vento Pressão Humidade
    00:00 -5°C° 0 mm 4 m/s 722 mmHg 85%
    01:00 -5°C° 0 mm 4 m/s 722 mmHg 86%
    02:00 -5°C° 0 mm 4 m/s 721 mmHg 85%
    03:00 -5°C° 0 mm 4 m/s 721 mmHg 85%
    04:00 -5°C° 0 mm 4 m/s 721 mmHg 85%
    05:00 -5°C° 0 mm 4 m/s 720 mmHg 85%
    06:00 -5°C° 0 mm 4 m/s 720 mmHg 85%
    07:00 -5°C° 0 mm 4 m/s 720 mmHg 85%
    08:00 -4°C° 0 mm 4 m/s 720 mmHg 81%
    09:00 -4°C° 0 mm 4 m/s 720 mmHg 77%
    10:00 -4°C° 0 mm 5 m/s 720 mmHg 73%
    11:00 -2°C° 0 mm 5 m/s 720 mmHg 71%
    12:00 -1°C° 0 mm 5 m/s 719 mmHg 69%
    13:00 0°C° 0 mm 5 m/s 719 mmHg 67%
    14:00 -1°C° 0.1 mm 5 m/s 718 mmHg 70%
    15:00 -1°C° 0.1 mm 5 m/s 718 mmHg 73%
    16:00 -2°C° 0.1 mm 4 m/s 718 mmHg 76%
    17:00 -2°C° 0.3 mm 4 m/s 718 mmHg 77%
    18:00 -2°C° 0.3 mm 4 m/s 717 mmHg 79%
    19:00 -2°C° 0.3 mm 4 m/s 717 mmHg 80%
    20:00 -2°C° 0.4 mm 4 m/s 717 mmHg 82%
    21:00 -1°C° 0.4 mm 3 m/s 717 mmHg 85%
    22:00 -1°C° 0.4 mm 3 m/s 718 mmHg 87%
    23:00 -1°C° 0.2 mm 3 m/s 718 mmHg 88%

    21 Novembro, Quarta-feira

    Tempo Temperatura Precipitação Vento Pressão Humidade
    00:00 -1°C° 0.2 mm 3 m/s 718 mmHg 89%
    01:00 -1°C° 0.2 mm 3 m/s 718 mmHg 90%
    02:00 -1°C° 0 mm 3 m/s 718 mmHg 91%
    03:00 -1°C° 0 mm 3 m/s 718 mmHg 91%
    04:00 -1°C° 0 mm 3 m/s 718 mmHg 91%
    05:00 -1°C° 0.1 mm 3 m/s 718 mmHg 91%
    06:00 -1°C° 0.1 mm 3 m/s 718 mmHg 92%
    07:00 -1°C° 0.1 mm 2 m/s 718 mmHg 92%
    08:00 -1°C° 0.1 mm 3 m/s 719 mmHg 91%
    09:00 -1°C° 0.1 mm 3 m/s 719 mmHg 91%
    10:00 0°C° 0.1 mm 3 m/s 719 mmHg 90%
    11:00 0°C° 0 mm 3 m/s 719 mmHg 90%
    12:00 0°C° 0 mm 3 m/s 719 mmHg 90%
    13:00 0°C° 0 mm 3 m/s 720 mmHg 90%
    14:00 0°C° 0.1 mm 3 m/s 720 mmHg 90%
    15:00 0°C° 0.1 mm 3 m/s 720 mmHg 91%
    16:00 0°C° 0.1 mm 3 m/s 720 mmHg 91%
    17:00 0°C° 0.1 mm 3 m/s 720 mmHg 91%
    18:00 0°C° 0.1 mm 3 m/s 720 mmHg 91%
    19:00 0°C° 0.1 mm 3 m/s 720 mmHg 90%
    20:00 0°C° 0 mm 3 m/s 720 mmHg 90%
    21:00 0°C° 0 mm 3 m/s 720 mmHg 90%
    22:00 -1°C° 0 mm 3 m/s 720 mmHg 90%
    23:00 -1°C° 0 mm 3 m/s 720 mmHg 91%

    22 Novembro, Quinta-feira

    Tempo Temperatura Precipitação Vento Pressão Humidade
    00:00 -1°C° 0 mm 3 m/s 721 mmHg 91%
    01:00 -1°C° 0 mm 3 m/s 721 mmHg 91%
    02:00 -1°C° 0 mm 3 m/s 721 mmHg 91%
    03:00 -1°C° 0 mm 3 m/s 721 mmHg 91%
    04:00 -1°C° 0 mm 3 m/s 721 mmHg 90%
    05:00 -1°C° 0 mm 3 m/s 721 mmHg 91%
    06:00 -1°C° 0 mm 3 m/s 721 mmHg 91%
    07:00 -1°C° 0 mm 3 m/s 721 mmHg 91%
    08:00 -1°C° 0.1 mm 3 m/s 722 mmHg 90%
    09:00 0°C° 0.1 mm 3 m/s 722 mmHg 89%
    10:00 0°C° 0.1 mm 3 m/s 722 mmHg 88%
    11:00 0°C° 0.1 mm 3 m/s 722 mmHg 87%
    12:00 +1°C° 0.1 mm 3 m/s 722 mmHg 87%
    13:00 +1°C° 0.1 mm 3 m/s 723 mmHg 86%
    14:00 +1°C° 0.1 mm 3 m/s 723 mmHg 88%
    15:00 +1°C° 0.1 mm 2 m/s 723 mmHg 89%
    16:00 +1°C° 0.1 mm 2 m/s 723 mmHg 91%
    17:00 +1°C° 0 mm 2 m/s 723 mmHg 91%
    18:00 +1°C° 0 mm 2 m/s 723 mmHg 92%
    19:00 +1°C° 0 mm 2 m/s 723 mmHg 93%
    20:00 +2°C° 0 mm 1 m/s 723 mmHg 93%
    21:00 +2°C° 0 mm 1 m/s 724 mmHg 92%
    22:00 +2°C° 0 mm 1 m/s 724 mmHg 92%
    23:00 +2°C° 0 mm 1 m/s 724 mmHg 92%

    23 Novembro, Sexta-feira

    Tempo Temperatura Precipitação Vento Pressão Humidade
    00:00 +2°C° 0 mm 1 m/s 724 mmHg 92%
    01:00 +2°C° 0 mm 1 m/s 724 mmHg 92%
    02:00 +3°C° 0 mm 1 m/s 724 mmHg 92%
    03:00 +3°C° 0 mm 1 m/s 724 mmHg 93%
    04:00 +3°C° 0 mm 1 m/s 724 mmHg 93%
    05:00 +3°C° 0 mm 1 m/s 724 mmHg 93%
    06:00 +3°C° 0 mm 1 m/s 724 mmHg 93%
    07:00 +3°C° 0 mm 1 m/s 724 mmHg 94%
    08:00 +3°C° 0 mm 2 m/s 724 mmHg 92%
    09:00 +4°C° 0 mm 2 m/s 725 mmHg 91%
    10:00 +4°C° 0 mm 2 m/s 725 mmHg 89%
    11:00 +5°C° 0 mm 2 m/s 725 mmHg 87%
    12:00 +6°C° 0 mm 2 m/s 725 mmHg 84%
    13:00 +6°C° 0 mm 2 m/s 725 mmHg 82%
    14:00 +6°C° 0 mm 2 m/s 725 mmHg 85%
    15:00 +6°C° 0 mm 1 m/s 724 mmHg 88%
    16:00 +5°C° 0 mm 1 m/s 724 mmHg 91%
    17:00 +5°C° 0 mm 1 m/s 724 mmHg 91%
    18:00 +4°C° 0 mm 1 m/s 724 mmHg 92%
    19:00 +4°C° 0 mm 1 m/s 724 mmHg 92%
    20:00 +4°C° 0 mm 1 m/s 724 mmHg 93%
    21:00 +4°C° 0 mm 1 m/s 724 mmHg 93%
    22:00 +4°C° 0 mm 1 m/s 724 mmHg 93%
    23:00 +4°C° 0 mm 1 m/s 724 mmHg 93%
    Mostrar mais